Regional Weather Roundup
Issued by NWS Cleveland, OH

Home | Current Version | Previous Version | Text Only | Print | Product List | Glossary Off
Versions: 1 2 3 4 5 6 7 8 9 10 11 12 13 14 15 16 17 18 19 20 21 22 23 24 25 26 27 28 29 30 31 32 33 34 35 36 37 38 39 40 41 42 43 44 45 46 47 48 49 50

000
ASUS41 KCLE 010902
RWRCLE
OHIO REGIONAL WEATHER ROUNDUP
NATIONAL WEATHER SERVICE CLEVELAND, OH
500 AM EDT MON SEP 01 2014

NOTE: "FAIR" INDICATES FEW OR NO CLOUDS BELOW 12,000 FEET WITH NO
SIGNIFICANT WEATHER AND/OR OBSTRUCTIONS TO VISIBILITY.

OHZ001>008-015>018-024>027-034-035-043-044-011000-
   NORTHWEST OHIO

CITY           SKY/WX    TMP DP  RH WIND       PRES   REMARKS
DEFIANCE       PTCLDY    70  67  90 S6        29.94S
FINDLAY        CLEAR     70  67  90 S7        29.95F
TOLEDO EXPRESS MOCLDY    70  69  97 S3        29.94S
TOLEDO EXEC    PTCLDY    72  68  87 S8        29.95R
LIMA           CLEAR     70  68  93 S8        29.97S
$$

OHZ009>014-019>023-028>033-038-089-011000-
   NORTHEAST OHIO

CITY           SKY/WX    TMP DP  RH WIND       PRES   REMARKS
CLE-HOPKINS    PTCLDY    70  68  93 S7        30.00R
CLE-LAKEFRONT  CLEAR     73  68  84 S9        29.96S
CUY CO. ARPT   NOT AVBL
LORAIN-ELYRIA  CLEAR     72  68  87 SW5       29.98F
ASHTABULA      NOT AVBL
AKRON-CANTON   CLOUDY    71  67  87 SW5       30.01S
WOOSTER        CLOUDY    71  68  90 SW6       30.02S
MANSFIELD      CLOUDY    70  69  97 S7        30.00F
YOUNGSTOWN     CLOUDY    71  69  93 S3        30.01F
$$

OHZ042-051>053-060>062-070>072-077>081-011000-
  SOUTHWEST OHIO

CITY           SKY/WX    TMP DP  RH WIND       PRES   REMARKS
CINC-COVINGTON CLOUDY    74  71  91 SW3       30.01S
CINC-LUNKEN    MOCLDY    72  71  97 S3        30.00F
HAMILTON       CLOUDY    73  71  93 CALM      30.00F
DAYTON         CLOUDY    71  69  93 SW7       30.00S FOG
WRIGHT-PAT AFB MOCLDY    71  70  99 S6        29.99S
DAYTON GENERAL CLOUDY    71  70  96 S6        29.99F
WILMINGTON     LGT RAIN  71  70  96 SW6       30.01S FOG
$$

OHZ036-037-039>041-045>050-054>059-063>069-073>076-082>088-011000-
  CENTRAL AND SOUTHEAST OHIO

CITY           SKY/WX    TMP DP  RH WIND       PRES   REMARKS
COLUMBUS       CLOUDY    73  68  84 SW5       30.00S
OSU AIRPORT    CLOUDY    70  68  93 S6        30.00F
BOLTON FIELD   CLOUDY    69  69 100 SW5       30.01S FOG
RICKENBACK AFB CLOUDY    71  65  83 CALM      30.00S
NEWARK         CLOUDY    71  68  90 CALM      30.00F
MARION         CLOUDY    70  68  93 S6        29.99F
LANCASTER      CLOUDY    71  68  90 CALM      30.01F
ZANESVILLE     CLOUDY    71  68  90 CALM      30.01F
NEW PHILLY     CLOUDY    71  69  93 CALM      30.02S
$$



USA.gov is the U.S. government's official web portal to all federal, state and local government web resources and services.